Stations météo

Publicité
Noervenich/Flugplatz, Allemagne (10502): Température de l'air & dewpoint: 15.06.2018 18:00:00 - 21.06.2018 18:00:00 (CEST)Noervenich/Flugplatz, Allemagne (10502): Vitesse du vent & gusts: 15.06.2018 18:00:00 - 21.06.2018 18:00:00 (CEST)Noervenich/Flugplatz, Allemagne (10502): Direction du vent: 15.06.2018 18:00:00 - 21.06.2018 18:00:00 (CEST)Noervenich/Flugplatz, Allemagne (10502): reduced air pressure: 15.06.2018 18:00:00 - 21.06.2018 18:00:00 (CEST)Noervenich/Flugplatz, Allemagne (10502): visibility: 15.06.2018 18:00:00 - 21.06.2018 18:00:00 (CEST)
Date & Time tt [°C] td [°C] ff [km/h] ff [knt] fx [km/h] fx [knt] dd ppp [hPa] vv [km]
21.06.2018 18:00:00 - - - - - - - - -
21.06.2018 17:00:00 16,7 3,1 32 18 - - NW 1022,0 40
21.06.2018 16:00:00 17,8 3,2 29 16 54 29 NW 1020,9 40
21.06.2018 15:00:00 18,1 4,6 29 16 50 27 NW 1020,5 40
21.06.2018 14:00:00 17,9 5,7 29 16 - - NW 1019,7 30
21.06.2018 13:00:00 17,4 7,1 32 18 58 31 NW 1019,4 25
21.06.2018 12:00:00 17,2 9,6 29 16 50 27 NW 1018,8 20
21.06.2018 11:00:00 17,1 11,4 29 16 - - NW 1017,9 10
21.06.2018 10:00:00 16,8 14,0 22 12 - - WNW 1016,9 9
21.06.2018 09:00:00 16,3 14,5 21 11 - - W 1016,3 9
21.06.2018 08:00:00 17,2 14,3 21 11 - - W 1015,8 5
21.06.2018 07:00:00 17,1 14,0 18 10 - - W 1015,8 20
21.06.2018 06:00:00 16,6 13,3 14 8 - - W 1015,6 25
21.06.2018 05:00:00 16,5 13,7 11 6 - - SW 1015,6 30
21.06.2018 04:00:00 17,8 13,9 14 8 - - WSW 1016,4 30
21.06.2018 03:00:00 18,3 13,9 14 8 - - WSW 1017,0 30
21.06.2018 02:00:00 18,6 14,1 7 4 - - WSW 1017,2 30
21.06.2018 01:00:00 19,4 14,4 7 4 - - WSW 1017,4 40
21.06.2018 00:00:00 21,0 14,3 11 6 - - W 1017,7 40
20.06.2018 23:00:00 21,3 14,5 7 4 - - WSW 1017,8 40
20.06.2018 22:00:00 23,3 14,4 7 4 - - WNW 1017,5 40
20.06.2018 21:00:00 25,4 15,0 11 6 - - NW 1017,4 40
20.06.2018 20:00:00 26,4 14,4 11 6 - - NW 1017,5 40
20.06.2018 19:00:00 27,1 14,1 14 8 - - NW 1017,9 40
20.06.2018 18:00:00 27,5 13,3 11 6 - - NW 1018,3 40
20.06.2018 17:00:00 27,4 14,6 11 6 - - WNW 1018,9 40
20.06.2018 16:00:00 27,0 13,9 7 4 - - N 1019,2 40
20.06.2018 15:00:00 26,7 14,6 4 2 - - NNW 1019,7 30
20.06.2018 14:00:00 25,8 15,0 11 6 - - NNW 1020,3 30
20.06.2018 13:00:00 25,1 15,4 7 4 - - WSW 1021,0 20
20.06.2018 12:00:00 24,0 14,9 11 6 - - WSW 1021,4 20
20.06.2018 11:00:00 22,3 15,5 7 4 - - W 1022,0 20
20.06.2018 10:00:00 21,3 15,0 4 2 - - N 1022,3 20
20.06.2018 09:00:00 21,2 15,1 4 2 - - N 1022,5 20
20.06.2018 08:00:00 19,4 15,7 4 2 - - SE 1022,6 20
20.06.2018 07:00:00 18,2 15,9 0 0 - - N 1022,9 20
20.06.2018 06:00:00 17,6 15,7 0 0 - - N 1023,0 20
20.06.2018 05:00:00 17,5 15,7 4 2 - - W 1023,3 20
20.06.2018 04:00:00 17,7 15,8 0 0 - - N 1023,5 20
20.06.2018 03:00:00 17,8 15,9 4 2 - - SW 1023,9 20
20.06.2018 02:00:00 17,9 15,9 4 2 - - N 1024,1 20
20.06.2018 01:00:00 18,0 16,0 0 0 - - N 1024,4 25
20.06.2018 00:00:00 18,4 16,0 4 2 - - WNW 1024,5 30
19.06.2018 23:00:00 18,8 16,1 4 2 - - WNW 1024,4 30
19.06.2018 22:00:00 19,5 15,8 4 2 - - WNW 1024,1 30
19.06.2018 21:00:00 20,0 15,5 7 4 - - WNW 1024,1 20
19.06.2018 20:00:00 20,6 15,4 7 4 - - NW 1024,0 20
19.06.2018 19:00:00 20,8 15,4 7 4 - - WNW 1024,1 20
19.06.2018 18:00:00 20,8 15,3 11 6 - - N 1024,3 20
19.06.2018 17:00:00 20,7 15,5 7 4 - - NW 1024,4 15
19.06.2018 16:00:00 20,1 15,1 11 6 - - NW 1024,7 15
19.06.2018 15:00:00 19,5 15,2 11 6 - - WNW 1024,6 15
19.06.2018 14:00:00 19,4 15,3 11 6 - - W 1024,6 15
19.06.2018 13:00:00 18,5 15,2 14 8 - - W 1024,7 10
19.06.2018 12:00:00 17,7 15,4 15 8 - - WNW 1024,6 10
19.06.2018 11:00:00 18,3 14,7 14 8 - - WNW 1024,2 20
19.06.2018 10:00:00 17,7 14,4 14 8 - - W 1024,0 20
19.06.2018 09:00:00 17,1 14,1 18 10 - - W 1023,5 15
19.06.2018 08:00:00 16,0 13,4 14 8 - - W 1023,3 15
19.06.2018 07:00:00 15,6 13,3 11 6 - - W 1023,2 20
19.06.2018 06:00:00 13,7 12,0 4 2 - - N 1023,0 30
19.06.2018 05:00:00 14,7 11,9 4 2 - - WNW 1022,4 30
19.06.2018 04:00:00 13,9 12,1 7 4 - - WSW 1022,4 30
19.06.2018 03:00:00 15,3 12,6 7 4 - - SW 1022,2 30
19.06.2018 02:00:00 15,5 12,7 4 2 - - SW 1022,3 30
19.06.2018 01:00:00 15,7 12,9 14 8 - - W 1022,2 30
19.06.2018 00:00:00 16,8 13,5 14 8 - - WNW 1022,0 30
18.06.2018 23:00:00 17,8 14,0 11 6 - - WNW 1021,6 30
18.06.2018 22:00:00 18,6 14,8 7 4 - - WNW 1020,9 30
18.06.2018 21:00:00 20,0 15,1 11 6 - - WNW 1020,5 30
18.06.2018 20:00:00 21,2 14,8 14 8 - - W 1020,1 30
18.06.2018 19:00:00 21,5 14,3 14 8 - - W 1020,2 30
18.06.2018 18:00:00 21,4 14,4 14 8 - - W 1020,5 30
18.06.2018 17:00:00 21,2 14,2 18 10 - - W 1020,8 30
18.06.2018 16:00:00 19,9 14,0 22 12 - - W 1021,1 30
18.06.2018 15:00:00 21,2 13,9 18 10 - - W 1020,8 30
18.06.2018 14:00:00 20,8 13,3 18 10 - - W 1020,7 30
18.06.2018 13:00:00 20,5 12,5 14 8 - - WSW 1020,6 40
18.06.2018 12:00:00 19,4 11,9 14 8 - - WSW 1021,0 30
18.06.2018 11:00:00 19,1 12,2 14 8 - - SW 1021,0 30
18.06.2018 10:00:00 17,1 11,9 11 6 - - SSW 1021,1 30
18.06.2018 09:00:00 16,4 11,6 14 8 - - SW 1020,9 30
18.06.2018 08:00:00 15,8 11,1 11 6 - - SW 1020,8 30
18.06.2018 07:00:00 15,0 11,0 11 6 - - S 1020,6 30
18.06.2018 06:00:00 14,6 10,6 7 4 - - SSW 1020,5 30
18.06.2018 05:00:00 14,5 10,6 11 6 - - SSW 1020,2 30
18.06.2018 04:00:00 14,5 10,5 11 6 - - S 1020,4 30
18.06.2018 03:00:00 14,4 10,5 11 6 - - SSW 1020,6 30
18.06.2018 02:00:00 14,8 10,2 7 4 - - SW 1021,0 30
18.06.2018 01:00:00 15,0 10,1 11 6 - - WSW 1020,7 30
18.06.2018 00:00:00 15,2 9,9 7 4 - - SSW 1020,6 30
17.06.2018 23:00:00 15,5 9,7 7 4 - - SW 1020,4 30
17.06.2018 22:00:00 15,5 9,6 7 4 - - WSW 1020,1 40
17.06.2018 21:00:00 16,3 9,5 7 4 - - W 1019,7 40
17.06.2018 20:00:00 - - - - - - - - -
17.06.2018 19:00:00 16,9 9,2 14 8 - - W 1019,6 40
17.06.2018 18:00:00 16,9 9,3 22 12 - - W 1019,3 40
17.06.2018 17:00:00 17,2 10,1 22 12 - - WNW 1019,2 40
17.06.2018 16:00:00 17,7 10,4 22 12 - - WNW 1018,7 40
17.06.2018 15:00:00 17,1 10,3 18 10 - - WNW 1018,5 40
17.06.2018 14:00:00 17,8 10,9 22 12 - - WNW 1018,1 30
17.06.2018 13:00:00 18,9 10,8 25 14 - - W 1017,7 30
17.06.2018 12:00:00 18,6 11,1 22 12 - - W 1017,6 30
17.06.2018 11:00:00 17,8 11,6 18 10 - - W 1017,8 30
17.06.2018 10:00:00 17,2 10,9 22 12 - - W 1017,9 30
17.06.2018 09:00:00 16,2 11,3 14 8 - - WSW 1017,6 25
17.06.2018 08:00:00 15,1 10,7 11 6 - - WSW 1017,4 25
17.06.2018 07:00:00 14,0 10,1 4 2 - - N 1017,4 20
17.06.2018 06:00:00 12,2 9,8 7 4 - - SSW 1017,2 20
17.06.2018 05:00:00 12,7 9,8 7 4 - - SW 1017,3 20
17.06.2018 04:00:00 13,8 9,7 14 8 - - WSW 1016,9 25
17.06.2018 03:00:00 13,7 10,8 11 6 - - WSW 1016,9 25
17.06.2018 02:00:00 14,3 11,1 14 8 - - W 1016,7 20
17.06.2018 01:00:00 14,7 11,5 11 6 - - W 1016,3 20
17.06.2018 00:00:00 15,0 11,9 11 6 - - WSW 1016,3 20
16.06.2018 23:00:00 15,7 12,5 7 4 - - WSW 1016,2 20
16.06.2018 22:00:00 16,6 13,5 18 10 - - W 1015,6 20
16.06.2018 21:00:00 18,6 16,5 7 4 - - W 1014,9 15
16.06.2018 20:00:00 18,4 16,2 15 8 - - W 1014,5 9
16.06.2018 19:00:00 20,1 16,7 7 4 - - NW 1013,9 15
16.06.2018 18:00:00 18,0 16,2 18 10 50 27 WNW 1014,4 12
16.06.2018 17:00:00 23,3 12,6 7 4 - - ENE 1013,7 25
16.06.2018 16:00:00 22,6 12,4 11 6 - - NNW 1014,2 25
16.06.2018 15:00:00 22,4 12,7 7 4 - - W 1014,4 25
16.06.2018 14:00:00 23,1 12,3 4 2 - - E 1014,7 25
16.06.2018 13:00:00 22,6 12,4 7 4 - - N 1015,1 25
16.06.2018 12:00:00 21,8 12,5 7 4 - - NE 1015,3 25
16.06.2018 11:00:00 19,6 13,2 4 2 - - N 1015,7 25
16.06.2018 10:00:00 19,0 13,0 7 4 - - N 1015,8 25
16.06.2018 09:00:00 18,1 12,1 7 4 - - N 1015,8 25
16.06.2018 08:00:00 15,6 12,1 4 2 - - N 1016,0 25
16.06.2018 07:00:00 13,9 11,5 4 2 - - N 1015,9 25
16.06.2018 06:00:00 13,1 11,3 4 2 - - N 1015,9 25
16.06.2018 05:00:00 12,9 11,5 4 2 - - S 1016,1 25
16.06.2018 04:00:00 13,3 11,2 4 2 - - N 1015,9 25
16.06.2018 03:00:00 16,0 11,5 4 2 - - N 1015,9 25
16.06.2018 02:00:00 15,7 12,0 7 4 - - WSW 1016,0 25
16.06.2018 01:00:00 15,7 12,2 4 2 - - SW 1016,1 25
16.06.2018 00:00:00 15,7 12,3 4 2 - - WSW 1016,0 25
15.06.2018 23:00:00 16,0 11,8 0 0 - - N 1016,1 25
15.06.2018 22:00:00 17,5 12,4 0 0 - - N 1016,0 25
15.06.2018 21:00:00 20,4 11,5 7 4 - - NNW 1015,8 25
15.06.2018 20:00:00 21,6 11,4 7 4 - - WNW 1015,8 25
15.06.2018 19:00:00 23,1 10,6 7 4 - - NNW 1015,6 25
15.06.2018 18:00:00 22,9 11,7 11 6 - - WNW 1015,7 25

tt = Température de l'air
td = dewpoint
ff = Vitesse du vent
fx = gusts
dd = Direction du vent
ppp = reduced air pressure
vv = visibility

stations d'obs. à proximité